Regional Weather Roundup
Issued by NWS Nashville, TN

Home | Current Version | Previous Version | Text Only | Print | Product List | Glossary On
Versions: 1 2 3 4 5 6 7 8 9 10 11 12 13 14 15 16 17 18 19 20 21 22 23 24 25 26 27 28 29 30 31 32 33 34 35 36 37 38 39 40 41 42 43 44 45 46 47 48 49 50
000
ASUS44 KOHX 250310
RWROHX
MIDDLE TENNESSEE HOURLY WEATHER ROUNDUP
NATIONAL WEATHER SERVICE NASHVILLE TN
1000 PM CDT SAT JUN 24 2017

NOTE: "FAIR" INDICATES FEW OR NO CLOUDS BELOW 12,000 FEET WITH
NO SIGNIFICANT WEATHER AND/OR OBSTRUCTIONS TO VISIBILITY.

* THESE REPORTS ARE NOT UNDER NWS QUALITY CONTROL AND MAY NOT
  REPORT WEATHER SUCH AS PRECIPITATION AND FOG.


TNZ005>011-023>034-057-059-062>066-078-080-250400
...NORTHERN MIDDLE TENNESSEE...

CITY           SKY/WX    TMP DP  RH WIND       PRES   REMARKS
CLARKSVILLE    PTCLDY    65  54  67 NW5       30.16R
CROSSVILLE     PTCLDY    64  58  80 CALM      30.17R
GALLATIN       CLEAR     70  59  68 NW6       30.16R
NASHVILLE      MOCLDY    73  59  61 N6        30.14R
PORTLAND       CLEAR     68  59  73 N6        30.14R
SMYRNA         PTCLDY    72  62  71 N7        30.14R
SPARTA         CLEAR     64  61  88 CALM      30.13R
SPRINGFIELD    CLEAR     68  57  68 N3        30.14S
WEST NASHVILLE CLEAR     68  63  83 NW5       30.12R
$$
TNZ056-058-060-061-075>077-079-093>097-250400
...SOUTHERN MIDDLE TENNESSEE...

CITY           SKY/WX    TMP DP  RH WIND       PRES   REMARKS
COLUMBIA       CLEAR     68  64  88 CALM      30.12R
FAYETTEVILLE   CLEAR     70  61  73 N3        30.13R
MCMINNVILLE    CLEAR     70  63  78 NW3       30.14S
MURFREESBORO   PTCLDY    73  60  63 N3        30.13R
PULASKI        CLEAR     68  64  88 CALM      30.13R
SHELBYVILLE    CLEAR     68  63  83 CALM      30.13S
TULLAHOMA      CLEAR     66  59  77 N3        30.15R
WINCHESTER     CLEAR     70  61  73 CALM        N/A
$$


...KEY TO REMARKS...
VSB - VISIBILITY IN MILES
WCI - WIND CHILL INDEX
HX  - HEAT INDEX




USA.gov is the U.S. government's official web portal to all federal, state and local government web resources and services.